This is the latest recevied weather packets stored in our database for station/object CE1RLP-34. If no packets are shown the sender has not sent any weather packets the latest 10 day(s).
| Time | Temp. | Humidity | Pressure | Rain* | Wind** | Luminosity | Snow |
|---|---|---|---|---|---|---|---|
| 1777905312 | 28.33° C | 6% | 1083.3 hPa | - | - | - | - |
| 1777904410 | 27.22° C | 6% | 1083.2 hPa | - | - | - | - |
| 1777903510 | 26.11° C | 6% | 1083.2 hPa | - | - | - | - |
| 1777902607 | 25° C | 6% | 1083.1 hPa | - | - | - | - |
| 1777901707 | 23.89° C | 7% | 1082.9 hPa | - | - | - | - |
| 1777900805 | 22.22° C | 7% | 1082.7 hPa | - | - | - | - |
| 1777899905 | 21.11° C | 7% | 1082.8 hPa | - | - | - | - |
| 1777899002 | 18.89° C | 7% | 1082.6 hPa | - | - | - | - |
| 1777898103 | 18.33° C | 7% | 1082.6 hPa | - | - | - | - |
| 1777897200 | 16.67° C | 8% | 1082.7 hPa | - | - | - | - |
| 1777895427 | 13.89° C | 9% | 1082.6 hPa | - | - | - | - |
| 1777894527 | 12.78° C | 10% | 1082.5 hPa | - | - | - | - |
| 1777893626 | 12.22° C | 10% | 1082.4 hPa | - | - | - | - |
| 1777892727 | 11.67° C | 10% | 1082.4 hPa | - | - | - | - |
| 1777891822 | 12.22° C | 10% | 1082.2 hPa | - | - | - | - |
| 1777890921 | 12.22° C | 10% | 1082.2 hPa | - | - | - | - |
| 1777890019 | 12.22° C | 10% | 1082.1 hPa | - | - | - | - |
| 1777889119 | 12.22° C | 10% | 1082 hPa | - | - | - | - |
| 1777888217 | 12.22° C | 10% | 1082 hPa | - | - | - | - |
| 1777887316 | 12.22° C | 9% | 1081.9 hPa | - | - | - | - |
| 1777886414 | 12.22° C | 9% | 1082 hPa | - | - | - | - |
| 1777885515 | 12.22° C | 9% | 1082 hPa | - | - | - | - |
| 1777884612 | 12.78° C | 9% | 1082.1 hPa | - | - | - | - |
| 1777883712 | 12.78° C | 9% | 1082.1 hPa | - | - | - | - |
| 1777882809 | 12.78° C | 9% | 1082.1 hPa | - | - | - | - |
* Rain since midnight (hover to see other rain measurements)
** Current wind speed in m/s (hover to see current wind gust speed)